839  
AXUS43 KGID 161202  
MISGRI  
 
GID CWA HOURLY WEATHER ROUNDUP  
NATIONAL WEATHER SERVICE HASTINGS NE  
700 AM CDT TUE JUL 16 2019  
 
NOTE: "FAIR" INDICATES FEW OR NO CLOUDS BELOW 12,000 FEET WITH NO  
SIGNIFICANT WEATHER AND/OR OBSTRUCTIONS TO VISIBILITY.  
   
..SOUTH CENTRAL NEBRASKA
 
 
 
CITY SKY/WX TMP DP RH WIND PRES REMARKS  
GRAND ISLAND MOCLDY 68 65 90 E13 29.94F  
KEARNEY PTCLDY 68 64 87 E10 29.96F  
HASTINGS PTCLDY 68 65 90 NE8 29.98F  
ORD LGT RAIN 67 64 90 S9 29.92R  
YORK LGT RAIN 68 66 94 NE6 29.97S  
AURORA LGT RAIN 66 66 100 N14 29.98S  
LEXINGTON MOCLDY 67 64 89 SE8 29.97S  
HOLDREGE CLEAR 68 66 94 E9 29.98S  
HEBRON CLOUDY 73 70 91 N8 30.00R THUNDER  
   
..NEBRASKA PANHANDLE
 
 
 
CITY SKY/WX TMP DP RH WIND PRES REMARKS  
CHADRON PTCLDY 58 56 93 CALM 29.99F  
ALLIANCE MOCLDY 60 58 92 SE7 30.00F  
SCOTTSBLUFF MOCLDY 62 50 65 SE8 30.02S  
SIDNEY PTCLDY 57 55 93 SE6 30.09R  
   
..WESTERN AND NORTH CENTRAL NEBRASKA
 
 
 
CITY SKY/WX TMP DP RH WIND PRES REMARKS  
VALENTINE PTCLDY 65 60 84 NW5 29.97S  
AINSWORTH MOCLDY 64 64 100 CALM 29.96F  
ONEILL FAIR 66 65 96 CALM 29.92F  
BROKEN BOW MOCLDY 66 65 96 W8 29.98R  
IMPERIAL CLEAR 65 59 81 E6 30.01R  
NORTH PLATTE PTCLDY 63 60 90 CALM 30.00R  
MCCOOK CLEAR 68 65 90 NE14 29.98R  
   
..EASTERN NEBRASKA
 
 
 
CITY SKY/WX TMP DP RH WIND PRES REMARKS  
NORFOLK LGT RAIN 68 66 93 SW6 29.90F  
SO SIOUX CITY CLEAR 71 69 93 E6 29.87R  
TEKAMAH PTCLDY 71 68 90 SW10 29.91R  
COLUMBUS CLOUDY 69 67 93 W7 29.96F FOG  
ALBION LGT RAIN 69 65 90 CALM 29.91F  
OMAHA EPPLEY TSTM 72 71 97 CALM 29.93F  
OFFUTT AFB PTCLDY 72 72 100 CALM 29.96F  
MILLARD MOCLDY 73 71 94 CALM 29.93F  
LINCOLN PTCLDY 74 70 87 W3 29.96R  
NEBRASKA CITY TSTM 71 69 96 W3 29.97R  
BEATRICE LGT RAIN 74 71 89 NW17G24 29.98R  
FALLS CITY CLEAR 69 67 93 CALM 29.92R  
   
..NORTHERN KANSAS
 
 
 
CITY SKY/WX TMP DP RH WIND PRES REMARKS  
GOODLAND CLEAR 63 57 81 N5 30.01R  
HILL CITY PTCLDY 70 66 87 S6 29.95R  
PHILLIPSBURG CLEAR 72 68 88 NE5 29.95F  
OBERLIN FAIR 69 66 89 NE13 30.00S  
SMITH CENTER PTCLDY 70 66 88 E9 29.97S  
HAYS CLEAR 68 66 93 S6 29.93F  
RUSSELL CLEAR 73 66 78 S14 29.91F  
CONCORDIA CLEAR 71 68 90 CALM 29.94R  
SALINA CLEAR 70 66 87 S6 29.94R  
TOPEKA CLEAR 68 67 96 CALM 29.92R  
 
CLICK HERE TO GO TO PREVIOUS BULLETINS.

The Nexlab NE Page
The Nexlab KS Page Main Text Page